Location: アルンシュタイン
(50.0000°N, 10.0000°E)
Time: 19:21:12
(UTC+02:00)

Explorer 11/Cluster Stage 4 - All Passes

Search period start: 11 September 2024 00:00
Search period end: 21 September 2024 00:00
Orbit: 464 x 1209 km, 28.8° (Epoch: 10 September)

Date Brightness Start Highest point End Pass type
(mag) Time Alt. Az. Time Alt. Az. Time Alt. Az.
11 Sep - 10:33:25 10° SSW 10:36:53 13° S 10:40:20 10° SE daylight
11 Sep - 12:20:28 10° SW 12:23:55 13° S 12:27:17 10° SSE daylight
12 Sep - 10:14:03 10° SSW 10:17:35 14° S 10:21:10 10° SE daylight
12 Sep - 12:01:09 10° SW 12:04:38 13° S 12:08:04 10° SSE daylight
13 Sep - 09:54:46 10° SSW 09:58:18 14° S 10:01:53 10° SE daylight
13 Sep - 11:41:54 10° SW 11:45:20 13° S 11:48:45 10° SSE daylight
14 Sep - 09:35:33 10° SSW 09:38:59 14° S 09:42:31 10° SE daylight
14 Sep - 11:22:42 10° SW 11:26:01 13° S 11:29:20 10° SSE daylight
15 Sep - 09:16:24 10° SSW 09:19:41 13° S 09:23:03 10° SSE daylight
15 Sep - 11:03:36 10° SSW 11:06:41 13° S 11:09:49 10° SSE daylight
16 Sep - 08:57:21 10° SSW 09:00:22 13° S 09:03:31 10° SSE daylight
16 Sep - 10:44:36 10° SSW 10:47:21 12° S 10:50:10 10° SSE daylight
17 Sep - 08:38:22 10° SSW 08:41:04 12° S 08:43:53 10° SSE daylight
17 Sep - 10:25:44 10° SSW 10:28:01 11° S 10:30:22 10° S daylight
18 Sep - 08:19:29 10° SSW 08:21:46 12° S 08:24:08 10° SSE daylight
18 Sep - 10:07:07 10° SSW 10:08:42 11° S 10:10:17 10° S daylight
19 Sep - 08:00:48 10° S 08:02:29 11° S 08:04:13 10° SSE daylight
20 Sep - 07:42:41 10° S 07:43:12 10° S 07:43:45 10° S daylight
